[[{"header":{"parameterUnit":"m.s-1","parameterCategory":1,"la1":30.2991,"la2":30.254,"lo1":-89.0895,"lo2":-89.0444,"dy":0.0017,"dx":0.0017,"nx":28,"ny":28,"refTime":"2024-07-28T09:00:00:Z","depth":0,"parameterNumber":2,"parameterNumberName":"U-component_of_WINDS"},"data":[0,0,0,0,0,0,0,0,0,0,0,0,0,0,0,0,0,0,0,0,0,0,0,0,0,0,0,0,0,0,0,0,0,0,0,0,0,0,0,0,0,0,0,0,0,0,0,0,0,0,0,0,0,0,0,0,0,0,1.4231,1.4233,0,1.436,1.4362,1.4363,1.4405,1.4404,1.4404,1.4403,1.4536,1.454,1.4544,0,0,0,0,0,0,0,0,0,0,0,0,0,1.4021,1.4025,1.4231,1.4233,1.4235,1.436,1.4362,1.4364,1.4405,1.4404,1.4404,1.4403,1.4535,1.454,1.4545,0,0,0,0,0,0,0,0,0,0,0,0,0,1.4128,1.4026,1.4231,1.427,1.4275,1.436,1.4362,1.4364,1.4405,1.4404,1.4403,1.4403,1.4533,1.4539,1.4545,1.4601,0,0,1.4564,1.4567,0,0,0,0,0,0,0,0,1.4121,1.4135,1.4263,1.4268,1.4273,1.4366,1.4337,1.4443,1.4405,1.4356,1.4403,1.4402,1.448,1.4491,1.4517,1.4607,1.4613,1.4565,1.4568,1.4571,1.4573,0,0,0,0,0,0,0,1.4114,1.413,1.4282,1.4265,1.4271,1.4282,1.4296,1.4357,1.4421,1.436,1.4363,1.4378,1.4483,1.4511,1.452,1.4615,1.4564,1.457,1.4574,1.4576,1.4755,1.4756,0,0,0,0,0,0,1.41,1.4123,1.4278,1.4286,1.4194,1.4286,1.4302,1.4337,1.4421,1.4433,1.4379,1.4379,1.4501,1.4513,1.4525,1.4595,1.4571,1.4577,1.458,1.4754,1.4756,1.4757,0,0,0,0,0,0,1.4095,1.4113,1.4273,1.4206,1.4227,1.4291,1.433,1.434,1.4368,1.4435,1.4447,1.4395,1.4501,1.4517,1.4581,1.46,1.4579,1.4585,1.4753,1.4755,1.4756,1.4734,0,0,0,0,0,0,1.4089,1.4111,1.4133,1.4206,1.423,1.4327,1.4331,1.4343,1.4378,1.438,1.4454,1.4465,1.4501,1.4572,1.4587,1.4608,1.459,1.4752,1.4754,1.4756,1.4733,1.4735,1.4736,0,0,0,0,0,1.4081,1.4122,1.4134,1.4152,1.4259,1.4328,1.4342,1.4382,1.4379,1.4402,1.4445,1.4463,1.4595,1.4578,1.4596,1.4618,1.4751,1.4753,1.4756,1.4733,1.4734,1.4736,0,0,0,0,0,0,1.405,1.4132,1.4146,1.4212,1.4262,1.4335,1.4364,1.4383,1.4436,1.4436,1.4484,1.45,1.4561,1.4597,1.4576,1.4676,1.4674,1.468,1.465,1.4653,1.4654,1.4644,1.4595,0,0,0,0,0,1.4051,1.41,1.4169,1.422,1.4245,1.43,1.4332,1.4358,1.4413,1.4435,1.4482,1.4535,1.4588,1.4623,1.4676,1.4739,1.4755,1.4763,1.4764,1.4765,1.4769,1.4805,1.4809,1.4765,1.4765,1.4765,0,0,1.4053,1.4104,1.4132,1.4215,1.4258,1.4307,1.4318,1.437,1.4407,1.4443,1.4506,1.4543,1.4605,1.4669,1.4699,1.47,1.4785,1.4768,1.4768,1.4772,1.4808,1.4812,1.4815,1.4766,1.4766,1.4766,0,0,1.4081,1.4125,1.4172,1.4214,1.4278,1.4314,1.4325,1.4395,1.442,1.4485,1.4512,1.4557,1.4649,1.4691,1.4725,1.4769,1.4787,1.4785,1.4791,1.4824,1.4828,1.4831,1.4846,1.4851,1.4789,1.4789,1.4789,0,1.4075,1.4151,1.4194,1.4244,1.428,1.4314,1.4361,1.44,1.4478,1.4502,1.4502,1.4616,1.466,1.4734,1.4745,1.4771,1.4785,1.4776,1.4824,1.4828,1.4831,1.4846,1.4852,1.4788,1.4788,1.4788,1.4788,0,1.4141,1.4193,1.4223,1.4297,1.4336,1.4385,1.4434,1.4469,1.4492,1.4528,1.4593,1.4647,1.4711,1.4731,1.4755,1.4808,1.4806,1.4814,1.4813,1.4834,1.4849,1.4855,1.4787,1.4787,1.4788,1.4788,0,0,1.4153,1.4249,1.4259,1.4293,1.4365,1.4407,1.4457,1.4519,1.4547,1.46,1.4643,1.4719,1.4727,1.4765,1.4793,1.4823,1.4853,1.4828,1.483,1.483,1.4914,1.4907,1.4913,1.4866,1.4867,1.4868,1.4909,0,1.419,1.4281,1.432,1.4393,1.4441,1.4474,1.4518,1.4567,1.4602,1.4648,1.4687,1.474,1.4747,1.477,1.48,1.4843,1.4871,1.4841,1.4906,1.4908,1.4889,1.4921,1.4914,1.4949,1.4915,1.4916,1.4917,0,1.4246,1.4298,1.4375,1.4441,1.4463,1.4501,1.4561,1.4605,1.4661,1.4685,1.4727,1.4754,1.4808,1.4803,1.4877,1.4856,1.4885,1.491,1.4912,1.492,1.4913,1.4928,1.4962,1.4967,1.4926,1.4925,1.4925,0,1.4245,1.4335,1.4393,1.4421,1.4499,1.4526,1.456,1.4615,1.465,1.4702,1.4725,1.4783,1.4815,1.4859,1.4901,1.4894,1.4971,1.497,1.4992,1.499,1.5006,1.5004,1.5044,1.5026,1.5026,1.5026,1.5026,0,1.4282,1.4328,1.4394,1.4429,1.4481,1.4526,1.4577,1.4613,1.4662,1.4705,1.4737,1.4777,1.483,1.4877,1.491,1.4966,1.498,1.5001,1.5009,1.4997,1.4994,1.5017,1.5015,1.5027,1.5027,1.5027,1.5026,0,1.4291,1.4337,1.4401,1.4471,1.4489,1.4524,1.4584,1.4619,1.4655,1.4709,1.4725,1.4782,1.4838,1.4884,1.4958,1.4981,1.5039,1.5049,1.502,1.5024,1.5042,1.504,1.5097,1.5107,1.5082,1.5082,1.5083,0,1.4311,1.4347,1.442,1.4451,1.4484,1.4534,1.4569,1.4614,1.465,1.4716,1.4744,1.4802,1.4851,1.4939,1.4987,1.5044,1.5055,1.5071,1.5064,1.5051,1.5054,1.5051,1.5055,1.5072,1.5072,1.5072,1.5072,0,1.4341,1.4362,1.4412,1.4469,1.451,1.4557,1.4606,1.4629,1.4684,1.4722,1.4779,1.4817,1.4892,1.4949,1.5011,1.5046,1.5068,1.5074,1.5082,1.507,1.5051,1.5061,1.502,1.5072,1.5072,1.5072,1.5072,1.5072,1.4356,1.4389,1.4445,1.4499,1.454,1.4584,1.4621,1.4662,1.471,1.4774,1.4799,1.4857,1.4912,1.4997,1.5032,1.5079,1.5082,1.5093,1.5096,1.5098,1.5096,1.5044,1.5091,1.5091,1.5091,1.5091,1.5091,0,1.4387,1.4425,1.4474,1.454,1.4583,1.4599,1.4653,1.4687,1.4739,1.4788,1.4835,1.4901,1.4957,1.5009,1.5067,1.5094,1.5106,1.5108,1.5106,1.5114,1.5091,1.5078,1.5098,1.5098,1.5098,1.5098,1.5098,1.5098,1.4409,1.4465,1.4492,1.457,1.4607,1.4665,1.4694,1.4735,1.4774,1.4846,1.4892,1.4926,1.4977,1.5039,1.509,1.5104,1.5124,1.5123,1.514,1.5117,1.5116,1.5114,1.5102,1.5128,1.5128,1.5159,1.516,1.516]},{"header":{"parameterUnit":"m.s-1","parameterCategory":1,"la1":30.2991,"la2":30.254,"lo1":-89.0895,"lo2":-89.0444,"dy":0.0017,"dx":0.0017,"nx":28,"ny":28,"refTime":"2024-07-28T09:00:00:Z","depth":0,"parameterNumber":3,"parameterNumberName":"V-component_of_WINDS"},"data":[0,0,0,0,0,0,0,0,0,0,0,0,0,0,0,0,0,0,0,0,0,0,0,0,0,0,0,0,0,0,0,0,0,0,0,0,0,0,0,0,0,0,0,0,0,0,0,0,0,0,0,0,0,0,0,0,0,0,4.9802,4.9803,0,4.9859,4.9859,4.986,4.9825,4.9823,4.9822,4.982,4.9871,4.9874,4.9877,0,0,0,0,0,0,0,0,0,0,0,0,0,4.9655,4.9658,4.9802,4.9803,4.9803,4.9859,4.9859,4.986,4.9825,4.9823,4.9821,4.9819,4.987,4.9873,4.9877,0,0,0,0,0,0,0,0,0,0,0,0,0,4.9716,4.9659,4.9802,4.9793,4.9793,4.9859,4.9859,4.986,4.9826,4.9823,4.9821,4.9819,4.9869,4.9873,4.9877,4.9953,0,0,4.9891,4.9892,0,0,0,0,0,0,0,0,4.9713,4.9721,4.9793,4.9794,4.9793,4.9833,4.9826,4.9891,4.9826,4.9813,4.982,4.9817,4.986,4.9865,4.988,4.9955,4.9958,4.9891,4.9894,4.9895,4.9897,0,0,0,0,0,0,0,4.9709,4.9719,4.9824,4.9794,4.9795,4.9783,4.9789,4.9838,4.9849,4.9814,4.9812,4.9819,4.9859,4.9876,4.9881,4.9958,4.9891,4.9895,4.9897,4.9899,5.0097,5.01,0,0,0,0,0,0,4.9706,4.9716,4.9822,4.9826,4.9746,4.9788,4.9795,4.9822,4.9849,4.985,4.9821,4.9817,4.987,4.9876,4.9883,4.9973,4.9895,4.9899,4.9902,5.0095,5.0098,5.0101,0,0,0,0,0,0,4.9703,4.9716,4.982,4.977,4.9783,4.9793,4.9824,4.9825,4.9842,4.9854,4.9855,4.9837,4.9868,4.9877,4.9936,4.9974,4.9901,4.9905,5.0091,5.0096,5.0099,5.0154,0,0,0,0,0,0,4.9699,4.9715,4.9746,4.9771,4.9785,4.9875,4.9827,4.9828,4.985,4.9846,4.987,4.9871,4.9867,4.993,4.9941,4.9979,4.9909,5.0088,5.0093,5.0098,5.0149,5.016,5.0169,0,0,0,0,0,4.9694,4.9758,4.9748,4.9761,4.9825,4.9877,4.9885,4.9882,4.9854,4.9883,4.9891,4.987,4.9969,4.9936,4.9948,4.9988,5.0086,5.0092,5.0098,5.0145,5.0158,5.0169,0,0,0,0,0,0,4.9734,4.9761,4.975,4.9824,4.9849,4.9871,4.9909,4.9895,4.9927,4.9921,4.9912,4.9918,4.998,4.999,4.9954,5.0062,5.0022,5.0031,5.0054,5.0067,5.0076,5.0072,4.9912,0,0,0,0,0,4.9752,4.9795,4.9815,4.9878,4.9891,4.9898,4.9921,4.9916,4.994,4.995,4.9962,4.9984,5.002,5.0044,5.0077,5.015,5.0154,5.0183,5.0193,5.0201,5.0209,5.0247,5.026,5.0121,5.0121,5.012,0,0,4.9788,4.9808,4.9835,4.9887,4.9905,4.9948,4.9907,4.9954,4.9984,4.9956,5.0014,5.0023,5.0047,5.0114,5.0144,5.0124,5.0248,5.0209,5.0215,5.0218,5.0255,5.0268,5.028,5.0125,5.0124,5.0123,0,0,4.9876,4.9896,4.9952,4.9972,5.0001,5.0005,5.0018,5.0043,5.0049,5.0107,5.0087,5.0122,5.0184,5.0202,5.0219,5.0314,5.0296,5.0325,5.0376,5.0414,5.0425,5.0435,5.0469,5.0481,5.0333,5.0333,5.0333,0,4.9917,4.9983,4.9981,5.003,5.0052,5.0031,5.0085,5.0104,5.0142,5.0157,5.0135,5.0212,5.0227,5.0297,5.0321,5.0335,5.0349,5.0323,5.0424,5.0434,5.0443,5.0475,5.0488,5.0336,5.0336,5.0335,5.0335,0,5.0031,5.0077,5.0118,5.0158,5.0185,5.0236,5.0239,5.0266,5.0259,5.0265,5.0323,5.034,5.0377,5.0393,5.0385,5.0462,5.0449,5.0426,5.0385,5.046,5.049,5.0502,5.0341,5.034,5.0339,5.0338,0,0,5.0146,5.0186,5.02,5.0218,5.025,5.0284,5.0333,5.0371,5.0394,5.0421,5.0461,5.0514,5.0493,5.0513,5.0506,5.054,5.0614,5.0512,5.0513,5.053,5.0698,5.0716,5.073,5.0602,5.0604,5.0606,5.0696,0,5.0236,5.0326,5.0325,5.0407,5.0448,5.0429,5.0471,5.0494,5.05,5.0534,5.054,5.0578,5.0547,5.0559,5.0591,5.0598,5.0647,5.0591,5.0637,5.0639,5.0632,5.0746,5.0764,5.0849,5.0708,5.071,5.0711,0,5.0354,5.0388,5.0474,5.05,5.0517,5.0556,5.0591,5.0624,5.0648,5.065,5.0673,5.0661,5.0709,5.0668,5.0732,5.0694,5.0713,5.0719,5.0722,5.0726,5.068,5.0752,5.0876,5.0888,5.073,5.0728,5.0727,0,5.0429,5.0495,5.0556,5.0572,5.0603,5.063,5.0644,5.0666,5.0689,5.0718,5.0733,5.0767,5.0785,5.081,5.0808,5.0778,5.0873,5.0831,5.0875,5.0875,5.0896,5.0894,5.1023,5.0908,5.0908,5.0907,5.0907,0,5.053,5.0583,5.059,5.0627,5.0686,5.0684,5.0741,5.0751,5.0771,5.0808,5.0792,5.0826,5.0821,5.0855,5.0853,5.0906,5.0914,5.0916,5.0915,5.0918,5.0918,5.093,5.0924,5.0911,5.091,5.0909,5.0909,0,5.0624,5.0631,5.0695,5.072,5.0727,5.0769,5.0789,5.0823,5.0828,5.0875,5.0886,5.0893,5.0932,5.0933,5.0976,5.0975,5.104,5.1032,5.1033,5.1032,5.1075,5.1071,5.1216,5.1235,5.1107,5.1108,5.1109,0,5.0688,5.0729,5.0759,5.0784,5.08,5.084,5.0864,5.0862,5.0887,5.0918,5.0948,5.0986,5.1017,5.108,5.1087,5.1121,5.1113,5.1162,5.1118,5.112,5.1114,5.1111,5.1115,5.117,5.1172,5.1173,5.1174,0,5.08,5.0802,5.0839,5.0877,5.0907,5.0936,5.0963,5.0984,5.0984,5.1013,5.1055,5.1078,5.1124,5.1162,5.1194,5.1205,5.1189,5.1188,5.12,5.1203,5.1202,5.1203,5.1057,5.1184,5.1183,5.1183,5.1182,5.1182,5.0881,5.0917,5.0944,5.0985,5.1006,5.1031,5.1065,5.1075,5.111,5.115,5.1145,5.1191,5.1213,5.1255,5.1269,5.1303,5.1286,5.1303,5.1307,5.1311,5.1316,5.1197,5.1309,5.1308,5.1308,5.1308,5.1308,0,5.0993,5.1009,5.1048,5.1087,5.1119,5.1104,5.1133,5.116,5.1202,5.1225,5.1256,5.1302,5.1339,5.135,5.1384,5.1409,5.1403,5.1418,5.1416,5.1419,5.133,5.1316,5.1423,5.1423,5.1423,5.1423,5.1423,5.1423,5.1055,5.1115,5.1119,5.1188,5.1204,5.1251,5.1268,5.1291,5.131,5.1364,5.1395,5.1403,5.142,5.1456,5.1488,5.149,5.1503,5.1522,5.1521,5.1437,5.1425,5.1414,5.1402,5.1525,5.1525,5.1607,5.1608,5.1609]}]]